[[{"header":{"parameterUnit":"m.s-1","parameterCategory":1,"la1":30.2991,"la2":30.254,"lo1":-89.0895,"lo2":-89.0444,"dy":0.0017,"dx":0.0017,"nx":28,"ny":28,"refTime":"2024-02-29T03:00:00:Z","depth":0,"parameterNumber":2,"parameterNumberName":"U-component_of_WINDS"},"data":[0,0,0,0,0,0,0,0,0,0,0,0,0,0,0,0,0,0,0,0,0,0,0,0,0,0,0,0,0,0,0,0,0,0,0,0,0,0,0,0,0,0,0,0,0,0,0,0,0,0,0,0,0,0,0,0,0,0,-5.2364,-5.2365,0,-5.2389,-5.2389,-5.2389,-5.2259,-5.2255,-5.2251,-5.2248,-5.2273,-5.2277,-5.2282,0,0,0,0,0,0,0,0,0,0,0,0,0,-5.2205,-5.2208,-5.2364,-5.2365,-5.2365,-5.2389,-5.2389,-5.2389,-5.2259,-5.2255,-5.225,-5.2246,-5.2272,-5.2277,-5.2282,0,0,0,0,0,0,0,0,0,0,0,0,0,-5.2256,-5.2209,-5.2364,-5.2303,-5.2298,-5.2389,-5.2389,-5.2389,-5.226,-5.2255,-5.2249,-5.2244,-5.227,-5.2276,-5.2283,-5.2434,0,0,-5.2302,-5.2305,0,0,0,0,0,0,0,0,-5.2253,-5.2262,-5.2312,-5.2307,-5.2302,-5.2315,-5.2342,-5.2404,-5.2262,-5.2275,-5.2248,-5.2241,-5.2292,-5.2296,-5.2313,-5.2435,-5.2436,-5.2302,-5.2306,-5.2309,-5.2311,0,0,0,0,0,0,0,-5.225,-5.226,-5.2374,-5.2313,-5.2306,-5.2274,-5.2275,-5.2353,-5.2314,-5.2273,-5.2264,-5.2268,-5.2288,-5.2307,-5.2313,-5.2437,-5.2302,-5.2308,-5.2312,-5.2314,-5.2683,-5.2689,0,0,0,0,0,0,-5.2255,-5.2258,-5.2373,-5.2375,-5.2263,-5.2281,-5.2283,-5.2316,-5.2313,-5.2307,-5.2273,-5.2262,-5.2299,-5.2305,-5.2313,-5.249,-5.2309,-5.2315,-5.2318,-5.2677,-5.2685,-5.2691,0,0,0,0,0,0,-5.2252,-5.2266,-5.2372,-5.2314,-5.2325,-5.229,-5.2329,-5.232,-5.2339,-5.2313,-5.2306,-5.23,-5.2295,-5.2304,-5.2405,-5.2489,-5.2317,-5.2323,-5.267,-5.268,-5.2688,-5.2846,0,0,0,0,0,0,-5.2248,-5.2266,-5.2323,-5.2316,-5.2329,-5.2464,-5.2334,-5.2324,-5.235,-5.2336,-5.2336,-5.2331,-5.2291,-5.2396,-5.2411,-5.2495,-5.2328,-5.2663,-5.2675,-5.2685,-5.2833,-5.2859,-5.2881,0,0,0,0,0,-5.2242,-5.2367,-5.2327,-5.2341,-5.24,-5.2469,-5.2476,-5.2428,-5.2357,-5.2415,-5.2398,-5.2331,-5.2477,-5.2407,-5.2423,-5.251,-5.2657,-5.2671,-5.2684,-5.2822,-5.2854,-5.2881,0,0,0,0,0,0,-5.2385,-5.2365,-5.232,-5.2446,-5.2461,-5.2447,-5.2518,-5.2463,-5.2498,-5.2484,-5.2422,-5.2423,-5.2534,-5.2532,-5.2454,-5.2656,-5.2555,-5.2572,-5.2654,-5.2684,-5.2708,-5.2707,-5.2333,0,0,0,0,0,-5.2431,-5.249,-5.2468,-5.2582,-5.2591,-5.2554,-5.2582,-5.2543,-5.2556,-5.2561,-5.2552,-5.2567,-5.2615,-5.2649,-5.2693,-5.2831,-5.2829,-5.2898,-5.2923,-5.2943,-5.2959,-5.3032,-5.3062,-5.2736,-5.2736,-5.2736,0,0,-5.2527,-5.2523,-5.2564,-5.261,-5.2617,-5.2679,-5.256,-5.263,-5.2676,-5.2572,-5.2667,-5.266,-5.2672,-5.2793,-5.2845,-5.2794,-5.3048,-5.296,-5.2976,-5.2982,-5.3049,-5.308,-5.3107,-5.2745,-5.2744,-5.2742,0,0,-5.2734,-5.2737,-5.2831,-5.284,-5.2851,-5.2825,-5.2848,-5.2843,-5.2835,-5.2928,-5.2852,-5.2905,-5.299,-5.3002,-5.3019,-5.3229,-5.3169,-5.3245,-5.3373,-5.3445,-5.347,-5.3493,-5.3569,-5.3596,-5.3261,-5.3262,-5.3262,0,-5.2853,-5.2943,-5.2887,-5.2963,-5.2985,-5.2894,-5.2989,-5.3,-5.3025,-5.3043,-5.2985,-5.309,-5.3092,-5.3213,-5.3264,-5.3281,-5.3305,-5.3246,-5.3471,-5.3493,-5.3513,-5.3585,-5.3613,-5.3271,-5.327,-5.3269,-5.3268,0,-5.3088,-5.3151,-5.3226,-5.3253,-5.3283,-5.3369,-5.3326,-5.3363,-5.3321,-5.3302,-5.3398,-5.3396,-5.3438,-5.3464,-5.3424,-5.358,-5.3548,-5.3482,-5.3379,-5.3555,-5.3621,-5.3648,-5.3284,-5.3281,-5.3278,-5.3276,0,0,-5.3388,-5.3381,-5.3409,-5.342,-5.3425,-5.3473,-5.3553,-5.3594,-5.3628,-5.3647,-5.3714,-5.3788,-5.3726,-5.3746,-5.3706,-5.3769,-5.3936,-5.3694,-5.3694,-5.374,-5.4108,-5.4159,-5.4192,-5.3895,-5.39,-5.3904,-5.4108,0,-5.3591,-5.3728,-5.368,-5.3821,-5.3879,-5.3792,-5.3862,-5.3872,-5.3856,-5.3902,-5.3883,-5.3937,-5.3851,-5.3862,-5.392,-5.3904,-5.4009,-5.3888,-5.3957,-5.396,-5.3958,-5.4226,-5.428,-5.4473,-5.4133,-5.4137,-5.414,0,-5.3847,-5.3877,-5.4023,-5.4017,-5.404,-5.4104,-5.4137,-5.4182,-5.4192,-5.4175,-5.4197,-5.4143,-5.4222,-5.4118,-5.4225,-5.4144,-5.4169,-5.4165,-5.4171,-5.4177,-5.4062,-5.4241,-5.4533,-5.4562,-5.418,-5.4177,-5.4174,0,-5.4052,-5.4129,-5.4226,-5.4238,-5.4233,-5.428,-5.4281,-5.4285,-5.4312,-5.434,-5.4357,-5.4394,-5.4415,-5.4445,-5.4403,-5.4331,-5.4517,-5.4409,-5.4506,-5.4507,-5.455,-5.4548,-5.4852,-5.4564,-5.4564,-5.4563,-5.4563,0,-5.4285,-5.4378,-5.4318,-5.4379,-5.448,-5.4423,-5.4525,-5.4516,-5.452,-5.4576,-5.4503,-5.4557,-5.4497,-5.4547,-5.4514,-5.4608,-5.4617,-5.4606,-5.4597,-5.4614,-5.4616,-5.4631,-5.4617,-5.4571,-5.4569,-5.4568,-5.4567,0,-5.4533,-5.4496,-5.4596,-5.4583,-5.4582,-5.4658,-5.4647,-5.4702,-5.4679,-5.4751,-5.4765,-5.473,-5.4784,-5.4744,-5.4797,-5.4775,-5.4899,-5.487,-5.4896,-5.4889,-5.4988,-5.4979,-5.5313,-5.5354,-5.5039,-5.5042,-5.5045,0,-5.4685,-5.4754,-5.4748,-5.4781,-5.4786,-5.4839,-5.4866,-5.4812,-5.4843,-5.4859,-5.4912,-5.496,-5.4995,-5.5085,-5.5064,-5.5104,-5.5076,-5.519,-5.5082,-5.5097,-5.5079,-5.5076,-5.5083,-5.5213,-5.5216,-5.5219,-5.5222,0,-5.4958,-5.4936,-5.4978,-5.5014,-5.5049,-5.5074,-5.5094,-5.5124,-5.5069,-5.5108,-5.5162,-5.5189,-5.5243,-5.5291,-5.5324,-5.5323,-5.5265,-5.5256,-5.528,-5.5299,-5.5312,-5.5307,-5.4957,-5.5249,-5.5246,-5.5244,-5.5243,-5.5242,-5.5163,-5.5221,-5.5226,-5.5275,-5.5284,-5.5304,-5.5355,-5.5338,-5.5382,-5.5421,-5.5386,-5.5451,-5.5458,-5.5495,-5.5502,-5.5552,-5.5505,-5.5541,-5.555,-5.556,-5.5574,-5.5303,-5.5557,-5.5557,-5.5556,-5.5555,-5.5555,0,-5.5434,-5.5433,-5.5478,-5.5508,-5.5546,-5.5486,-5.5504,-5.554,-5.5598,-5.5609,-5.5645,-5.5707,-5.5753,-5.5735,-5.5775,-5.5819,-5.5793,-5.5831,-5.5828,-5.5829,-5.5613,-5.5589,-5.5852,-5.5852,-5.5852,-5.5852,-5.5851,-5.5851,-5.558,-5.5675,-5.5653,-5.5751,-5.5748,-5.5812,-5.5827,-5.5845,-5.5853,-5.5926,-5.5963,-5.5951,-5.595,-5.599,-5.6029,-5.6022,-5.6041,-5.609,-5.6075,-5.5874,-5.5844,-5.5817,-5.5793,-5.6095,-5.6095,-5.6286,-5.6288,-5.6289]},{"header":{"parameterUnit":"m.s-1","parameterCategory":1,"la1":30.2991,"la2":30.254,"lo1":-89.0895,"lo2":-89.0444,"dy":0.0017,"dx":0.0017,"nx":28,"ny":28,"refTime":"2024-02-29T03:00:00:Z","depth":0,"parameterNumber":3,"parameterNumberName":"V-component_of_WINDS"},"data":[0,0,0,0,0,0,0,0,0,0,0,0,0,0,0,0,0,0,0,0,0,0,0,0,0,0,0,0,0,0,0,0,0,0,0,0,0,0,0,0,0,0,0,0,0,0,0,0,0,0,0,0,0,0,0,0,0,0,-5.8864,-5.8864,0,-5.8934,-5.8935,-5.8936,-5.8885,-5.8883,-5.888,-5.8878,-5.8946,-5.8949,-5.8953,0,0,0,0,0,0,0,0,0,0,0,0,0,-5.8679,-5.8683,-5.8864,-5.8865,-5.8865,-5.8934,-5.8935,-5.8936,-5.8885,-5.8883,-5.888,-5.8877,-5.8944,-5.8949,-5.8954,0,0,0,0,0,0,0,0,0,0,0,0,0,-5.8755,-5.8684,-5.8863,-5.8849,-5.8848,-5.8934,-5.8935,-5.8936,-5.8886,-5.8882,-5.8879,-5.8876,-5.8943,-5.8948,-5.8954,-5.9057,0,0,-5.8972,-5.8975,0,0,0,0,0,0,0,0,-5.8751,-5.8762,-5.885,-5.885,-5.8849,-5.8897,-5.8895,-5.8977,-5.8887,-5.8871,-5.8878,-5.8874,-5.8932,-5.8938,-5.8959,-5.906,-5.9063,-5.8973,-5.8976,-5.8979,-5.898,0,0,0,0,0,0,0,-5.8746,-5.8759,-5.8891,-5.8851,-5.8851,-5.8836,-5.8843,-5.891,-5.8919,-5.8872,-5.8869,-5.8878,-5.8931,-5.8953,-5.896,-5.9064,-5.8972,-5.8978,-5.8981,-5.8983,-5.9252,-5.9255,0,0,0,0,0,0,-5.8743,-5.8755,-5.8889,-5.8893,-5.8791,-5.8842,-5.885,-5.8885,-5.8919,-5.8921,-5.8881,-5.8876,-5.8945,-5.8953,-5.8962,-5.9084,-5.8979,-5.8984,-5.8987,-5.9248,-5.9253,-5.9256,0,0,0,0,0,0,-5.8739,-5.8755,-5.8886,-5.8823,-5.8839,-5.8849,-5.8889,-5.8888,-5.8911,-5.8925,-5.8926,-5.8902,-5.8943,-5.8954,-5.9034,-5.9086,-5.8987,-5.8992,-5.9244,-5.9249,-5.9254,-5.9329,0,0,0,0,0,0,-5.8734,-5.8754,-5.8795,-5.8825,-5.8842,-5.8959,-5.8892,-5.8892,-5.8921,-5.8915,-5.8946,-5.8947,-5.8941,-5.9026,-5.904,-5.9092,-5.8996,-5.9239,-5.9246,-5.9253,-5.9322,-5.9336,-5.9349,0,0,0,0,0,-5.8728,-5.8813,-5.8797,-5.8814,-5.8894,-5.8962,-5.8972,-5.8964,-5.8926,-5.8966,-5.8975,-5.8946,-5.9078,-5.9034,-5.905,-5.9104,-5.9236,-5.9244,-5.9252,-5.9316,-5.9334,-5.9348,0,0,0,0,0,0,-5.8787,-5.8816,-5.88,-5.8897,-5.8928,-5.8953,-5.9004,-5.8983,-5.9024,-5.9016,-5.9004,-5.9011,-5.9094,-5.9107,-5.9058,-5.9205,-5.915,-5.9162,-5.9194,-5.921,-5.9223,-5.9218,-5.9001,0,0,0,0,0,-5.8812,-5.8867,-5.8888,-5.8972,-5.8988,-5.8994,-5.9023,-5.9014,-5.9045,-5.9057,-5.9072,-5.9101,-5.9148,-5.918,-5.9225,-5.9324,-5.9328,-5.9369,-5.9382,-5.9393,-5.9403,-5.9454,-5.9472,-5.9283,-5.9283,-5.9283,0,0,-5.8863,-5.8886,-5.8921,-5.8985,-5.9007,-5.9062,-5.9005,-5.9065,-5.9105,-5.9066,-5.9142,-5.9154,-5.9185,-5.9275,-5.9315,-5.9288,-5.9456,-5.9403,-5.9412,-5.9416,-5.9464,-5.9482,-5.9498,-5.9289,-5.9288,-5.9287,0,0,-5.8985,-5.9008,-5.908,-5.9104,-5.9139,-5.9142,-5.9159,-5.9188,-5.9195,-5.9272,-5.9242,-5.9289,-5.9371,-5.9395,-5.9417,-5.9546,-5.9521,-5.9561,-5.963,-5.9681,-5.9695,-5.9709,-5.9753,-5.977,-5.9571,-5.9571,-5.9571,0,-5.9044,-5.9127,-5.9119,-5.9182,-5.921,-5.9178,-5.9249,-5.9272,-5.932,-5.9339,-5.9308,-5.9411,-5.943,-5.9523,-5.9555,-5.9574,-5.9592,-5.9557,-5.9694,-5.9707,-5.9719,-5.9762,-5.9779,-5.9576,-5.9575,-5.9575,-5.9574,0,-5.9197,-5.9255,-5.9308,-5.9357,-5.939,-5.9457,-5.9457,-5.9492,-5.948,-5.9486,-5.9563,-5.9585,-5.9633,-5.9654,-5.9643,-5.9746,-5.9728,-5.9696,-5.9641,-5.9742,-5.9782,-5.9798,-5.9582,-5.9581,-5.9579,-5.9578,0,0,-5.9358,-5.9401,-5.9421,-5.9441,-5.9478,-5.9521,-5.9585,-5.9634,-5.9663,-5.9697,-5.9749,-5.9819,-5.979,-5.9816,-5.9806,-5.9851,-5.995,-5.9813,-5.9814,-5.9837,-6.0062,-6.0086,-6.0105,-5.9933,-5.9936,-5.9939,-6.0059,0,-5.9481,-5.9595,-5.9589,-5.9695,-5.9748,-5.9717,-5.9773,-5.98,-5.9806,-5.985,-5.9855,-5.9905,-5.9864,-5.9879,-5.9921,-5.9929,-5.9995,-5.992,-5.998,-5.9982,-5.9973,-6.0126,-6.0151,-6.0264,-6.0075,-6.0078,-6.0079,0,-5.9639,-5.968,-5.9792,-5.9819,-5.984,-5.9891,-5.9934,-5.9977,-6.0006,-6.0007,-6.0035,-6.0019,-6.0081,-6.0025,-6.011,-6.0059,-6.0083,-6.009,-6.0095,-6.0099,-6.0037,-6.0133,-6.0299,-6.0316,-6.0104,-6.0102,-6.01,0,-5.9745,-5.9826,-5.9904,-5.9923,-5.9957,-5.9992,-6.0008,-6.0034,-6.0063,-6.0099,-6.0117,-6.0161,-6.0184,-6.0217,-6.0211,-6.0171,-6.0297,-6.0241,-6.0298,-6.0299,-6.0326,-6.0324,-6.0497,-6.0343,-6.0343,-6.0342,-6.0342,0,-5.9882,-5.9951,-5.9951,-5.9999,-6.0075,-6.0066,-6.0141,-6.0152,-6.0175,-6.0222,-6.0198,-6.0242,-6.0233,-6.0276,-6.0272,-6.0342,-6.0353,-6.0354,-6.0352,-6.0356,-6.0356,-6.0371,-6.0363,-6.0347,-6.0346,-6.0345,-6.0344,0,-6.0012,-6.0016,-6.0097,-6.0123,-6.0131,-6.0185,-6.0206,-6.025,-6.0254,-6.0314,-6.0327,-6.0333,-6.0383,-6.0381,-6.0437,-6.0434,-6.052,-6.0509,-6.0511,-6.0508,-6.0566,-6.056,-6.0754,-6.0778,-6.0609,-6.0611,-6.0612,0,-6.0099,-6.0152,-6.0183,-6.0214,-6.0232,-6.0282,-6.0312,-6.0304,-6.0335,-6.0372,-6.0411,-6.0459,-6.0497,-6.0578,-6.0586,-6.0628,-6.0617,-6.0682,-6.0624,-6.0626,-6.0617,-6.0614,-6.0618,-6.0694,-6.0696,-6.0697,-6.0699,0,-6.0253,-6.0252,-6.0296,-6.0341,-6.0378,-6.0412,-6.0444,-6.047,-6.0465,-6.0501,-6.0553,-6.0583,-6.064,-6.0688,-6.0728,-6.0741,-6.0719,-6.0717,-6.0732,-6.0737,-6.0735,-6.0736,-6.0542,-6.0713,-6.0711,-6.071,-6.0709,-6.0709,-6.0364,-6.0409,-6.0438,-6.0487,-6.0511,-6.054,-6.0583,-6.0592,-6.0636,-6.0683,-6.0675,-6.0733,-6.0758,-6.0811,-6.0828,-6.0871,-6.0848,-6.087,-6.0876,-6.0881,-6.0887,-6.0729,-6.0878,-6.0878,-6.0878,-6.0877,-6.0877,0,-6.0515,-6.0532,-6.0578,-6.0624,-6.0662,-6.0639,-6.0673,-6.0706,-6.0757,-6.0784,-6.0822,-6.088,-6.0926,-6.0937,-6.098,-6.1013,-6.1003,-6.1024,-6.1021,-6.1024,-6.0906,-6.0888,-6.1031,-6.1031,-6.1031,-6.1031,-6.1031,-6.1031,-6.0598,-6.0673,-6.0675,-6.076,-6.0775,-6.0833,-6.0854,-6.088,-6.0901,-6.0968,-6.1007,-6.1014,-6.1034,-6.1078,-6.1118,-6.112,-6.1136,-6.1161,-6.1159,-6.1048,-6.1033,-6.1018,-6.1001,-6.1165,-6.1166,-6.1273,-6.1275,-6.1275]}]]